Retour au catalogue

SKYCRAFT 4B

ActifScienceSSO
NORAD 64872·PAYLOAD·🇦🇺 Australia

Lancé Jul 23, 2025 depuis Vandenberg Space Force Base

Loading…

Prochains Passages (prochaines 24 heures)

TLE

FraisSource: Space-Track

Époque: Sep 14, 2026, 14:36 UTC

1 64872U 25154D   26257.60901249  .00004685  00000-0  39625-3 0  9998
2 64872  97.6592 320.6091 0004005 342.8155  17.2932 14.98521931 62437

Suivez SKYCRAFT 4B en temps réel avec AllMySat

Download on the App Store